Clarksburg, WV

10:59 AM EST on November 21, 2019 (GMT -0500)
Benedum

Weather History for KCKB - September, 2019

Change the Weather History Date:

Thursday, September 5, 2019

  Actual Average Record
Temperature  
Mean Temperature 67 °F -  
Max Temperature 77 °F 80 °F 96 °F (1953)
Min Temperature 59 °F 58 °F 43 °F (1997)
Cooling Degree Days 2    
Growing Degree Days 17 (Base 50)    
Moisture  
Dew Point 59 °F    
Average Humidity 76    
Maximum Humidity 90    
Minimum Humidity 60    
Precipitation  
Precipitation 0.00 in - - ()
Sea Level Pressure  
Sea Level Pressure 30.03 in    
Wind  
Wind Speed 6 mph (NNE)    
Max Wind Speed 10 mph    
Max Gust Speed -    
Visibility 10 miles    
Events      
Averages and records for this station are not official NWS values.
T = Trace of Precipitation, MM = Missing Value Source: NWS Daily Summary

Daily Weather History Graph

Daily Weather History Graph

Search for Another Location

Airport or City:

Astronomy

Sep. 05, 2019 Rise Set
Actual Time 6:52 AM EDT 7:45 PM EDT
Civil Twilight 6:25 AM EDT 8:12 PM EDT
Nautical Twilight 5:53 AM EDT 8:45 PM EDT
Astronomical Twilight 5:19 AM EDT 9:18 PM EDT
Moon 1:55 PM EDT (9/5) No Moon Set
Length of Visible Light 13h 47m
Length of Day
12h 52m
Waxing Crescent, 45% of the Moon is Illuminated
Sep 5
Waxing Crescent
Sep 5
First Quarter
Sep 14
Full
Sep 21
Last Quarter
Sep 28
New

Hourly Weather History & Observations

Time (EDT) Temp. Dew Point Humidity Pressure Visibility Wind Dir Wind Speed Gust Speed Precip Events Conditions
12:53 AM 66.0 °F 59.0 °F 78% 30.04 in 10.0 mi NNE 5.8 mph - N/A   Clear
1:53 AM 64.0 °F 57.9 °F 80% 30.04 in 10.0 mi NE 4.6 mph - N/A   Clear
2:53 AM 63.0 °F 57.9 °F 84% 30.04 in 10.0 mi NNE 5.8 mph - N/A   Clear
3:53 AM 62.1 °F 57.0 °F 84% 30.03 in 10.0 mi North 5.8 mph - N/A   Clear
4:53 AM 61.0 °F 55.9 °F 83% 30.03 in 10.0 mi NNE 6.9 mph - N/A   Clear
5:53 AM 60.1 °F 55.9 °F 86% 30.02 in 10.0 mi NNE 6.9 mph - N/A   Clear
6:09 AM 60.1 °F 55.9 °F 86% 30.07 in 10.0 mi NNE 4.6 mph - N/A   Partly Cloudy
6:53 AM 59.0 °F 55.0 °F 87% 30.04 in 9.0 mi NE 4.6 mph - N/A   Clear
7:23 AM 59.0 °F 55.0 °F 87% 30.08 in 8.0 mi NNE 3.5 mph - N/A   Scattered Clouds
7:37 AM 59.0 °F 55.9 °F 90% 30.08 in 8.0 mi NNE 4.6 mph - N/A   Mostly Cloudy
7:53 AM 60.1 °F 55.9 °F 86% 30.05 in 7.0 mi NNE 5.8 mph - N/A   Overcast
8:53 AM 61.0 °F 57.0 °F 87% 30.06 in 9.0 mi North 6.9 mph - N/A   Overcast
9:43 AM 63.0 °F 57.9 °F 84% 30.09 in 10.0 mi NNE 6.9 mph - N/A   Scattered Clouds
9:53 AM 63.0 °F 57.9 °F 84% 30.06 in 10.0 mi NE 5.8 mph - N/A   Partly Cloudy
10:53 AM 68.0 °F 59.0 °F 73% 30.05 in 10.0 mi NNW 5.8 mph - N/A   Clear
11:53 AM 71.1 °F 60.1 °F 68% 30.04 in 10.0 mi NNE 8.1 mph - N/A   Scattered Clouds
12:53 PM 73.0 °F 60.1 °F 64% 30.04 in 10.0 mi North 6.9 mph - N/A   Overcast
1:53 PM 73.9 °F 60.1 °F 62% 30.03 in 10.0 mi NNW 10.4 mph - N/A   Mostly Cloudy
2:53 PM 75.0 °F 61.0 °F 62% 30.02 in 10.0 mi North 9.2 mph - N/A   Mostly Cloudy
3:53 PM 75.0 °F 61.0 °F 62% 29.99 in 10.0 mi NE 6.9 mph - N/A   Mostly Cloudy
4:53 PM 75.0 °F 61.0 °F 62% 29.99 in 10.0 mi North 9.2 mph - N/A   Clear
5:53 PM 75.9 °F 61.0 °F 60% 29.99 in 10.0 mi North 3.5 mph - N/A   Mostly Cloudy
6:53 PM 75.9 °F 62.1 °F 62% 29.98 in 10.0 mi North 5.8 mph - N/A   Scattered Clouds
7:53 PM 73.9 °F 61.0 °F 64% 29.99 in 10.0 mi North 4.6 mph - N/A   Overcast
8:53 PM 71.1 °F 61.0 °F 70% 29.99 in 10.0 mi Calm Calm - N/A   Partly Cloudy
9:53 PM 68.0 °F 61.0 °F 78% 29.97 in 10.0 mi Calm Calm - N/A   Clear
10:53 PM 66.0 °F 60.1 °F 81% 29.96 in 10.0 mi Calm Calm - N/A   Clear
11:53 PM 64.9 °F 60.1 °F 84% 29.96 in 10.0 mi Calm Calm - N/A   Clear